| time (UTC) | temp C | wind direction | speed KPH | gust KPH | rain 1hr cm | rain 24hr cm | rain mn cm | humidity % | barometer mb |
| 20260504050545 | 7 | 320 | 16.1 | 27.4 | 0.00 | 0.00 | 0.00 | 74 | 1014.2 |
| 20260504045525 | 6 | 325 | 17.7 | 27.4 | 0.00 | 0.00 | 0.00 | 75 | 1014.2 |
| 20260504044525 | 6 | 312 | 16.1 | 27.4 | 0.00 | 0.00 | 0.00 | 75 | 1014.1 |
| 20260504043524 | 6 | 329 | 16.1 | 32.2 | 0.00 | 0.00 | 0.00 | 75 | 1014.1 |
| 20260504042525 | 6 | 326 | 14.5 | 24.1 | 0.00 | 0.00 | 0.00 | 76 | 1014.1 |
| 20260504041524 | 6 | 328 | 14.5 | 27.4 | 0.00 | 0.00 | 0.00 | 75 | 1014.0 |
| 20260504040524 | 6 | 327 | 16.1 | 27.4 | 0.00 | 0.00 | 0.00 | 75 | 1014.0 |
| 20260504035525 | 6 | 330 | 12.9 | 27.4 | 0.00 | 0.00 | 0.00 | 75 | 1014.0 |
| 20260504034524 | 6 | 327 | 16.1 | 27.4 | 0.00 | 0.05 | 0.00 | 74 | 1013.9 |
| 20260504033525 | 6 | 321 | 14.5 | 27.4 | 0.00 | 0.08 | 0.00 | 74 | 1013.9 |
| 20260504032545 | 6 | 318 | 16.1 | 27.4 | 0.00 | 0.08 | 0.00 | 74 | 1013.8 |
| 20260504031524 | 6 | 324 | 14.5 | 27.4 | 0.00 | 0.08 | 0.00 | 74 | 1013.7 |
| 20260504030537 | 6 | 320 | 14.5 | 27.4 | 0.00 | 0.08 | 0.00 | 74 | 1013.7 |
| 20260504025536 | 6 | 319 | 14.5 | 24.1 | 0.00 | 0.08 | 0.00 | 73 | 1013.6 |
| 20260504024525 | 6 | 319 | 12.9 | 24.1 | 0.00 | 0.08 | 0.00 | 73 | 1013.6 |
| 20260504023525 | 6 | 320 | 12.9 | 24.1 | 0.00 | 0.08 | 0.00 | 72 | 1013.7 |
| 20260504022525 | 6 | 332 | 12.9 | 27.4 | 0.00 | 0.08 | 0.00 | 71 | 1013.7 |
| 20260504021524 | 6 | 319 | 14.5 | 27.4 | 0.00 | 0.08 | 0.00 | 71 | 1013.8 |
| 20260504020625 | 6 | 323 | 14.5 | 24.1 | 0.00 | 0.08 | 0.00 | 71 | 1013.9 |
| 20260504015537 | 6 | 324 | 12.9 | 24.1 | 0.00 | 0.08 | 0.00 | 73 | 1014.0 |
| 20260504014524 | 6 | 329 | 14.5 | 24.1 | 0.00 | 0.08 | 0.00 | 73 | 1014.1 |
| 20260504013559 | 5 | 313 | 12.9 | 27.4 | 0.00 | 0.08 | 0.00 | 74 | 1014.3 |
| 20260504012537 | 6 | 325 | 12.9 | 24.1 | 0.00 | 0.08 | 0.00 | 72 | 1014.3 |
| 20260504011537 | 6 | 313 | 11.3 | 17.7 | 0.00 | 0.08 | 0.00 | 72 | 1014.5 |
| 20260504010524 | 6 | 324 | 11.3 | 24.1 | 0.00 | 0.08 | 0.00 | 73 | 1014.6 |
| 20260504005605 | 6 | 325 | 11.3 | 17.7 | 0.00 | 0.08 | 0.00 | 72 | 1014.7 |
| 20260504004545 | 5 | 325 | 11.3 | 17.7 | 0.00 | 0.08 | 0.00 | 73 | 1014.8 |
| 20260504003545 | 5 | 318 | 9.7 | 17.7 | 0.00 | 0.08 | 0.00 | 73 | 1014.9 |
| 20260504002649 | 5 | 323 | 12.9 | 17.7 | 0.00 | 0.08 | 0.00 | 72 | 1015.0 |
| 20260504001524 | 5 | 316 | 12.9 | 24.1 | 0.00 | 0.08 | 0.00 | 71 | 1015.0 |
| 20260504000524 | 6 | 323 | 11.3 | 17.7 | 0.00 | 0.08 | 0.00 | 68 | 1015.1 |
| 20260503235525 | 6 | 330 | 11.3 | 14.5 | 0.00 | 0.08 | 0.00 | 68 | 1015.1 |
| 20260503234536 | 6 | 320 | 11.3 | 17.7 | 0.00 | 0.08 | 0.00 | 67 | 1015.1 |
| 20260503233525 | 6 | 324 | 11.3 | 17.7 | 0.00 | 0.08 | 0.00 | 67 | 1015.1 |
| 20260503232524 | 6 | 330 | 11.3 | 17.7 | 0.00 | 0.08 | 0.00 | 68 | 1015.2 |
| 20260503231524 | 6 | 319 | 11.3 | 17.7 | 0.00 | 0.08 | 0.00 | 67 | 1015.3 |
| 20260503230525 | 6 | 328 | 9.7 | 14.5 | 0.00 | 0.08 | 0.00 | 67 | 1015.3 |
| 20260503225524 | 6 | 332 | 9.7 | 17.7 | 0.00 | 0.08 | 0.00 | 67 | 1015.4 |
| 20260503224617 | 6 | 323 | 9.7 | 14.5 | 0.00 | 0.08 | 0.00 | 66 | 1015.5 |
| 20260503223525 | 6 | 330 | 9.7 | 14.5 | 0.00 | 0.08 | 0.00 | 66 | 1015.6 |
| 20260503222537 | 6 | 330 | 9.7 | 14.5 | 0.00 | 0.08 | 0.00 | 67 | 1015.6 |
| 20260503221524 | 6 | 335 | 9.7 | 17.7 | 0.00 | 0.08 | 0.00 | 68 | 1015.7 |
| 20260503220525 | 6 | 331 | 9.7 | 17.7 | 0.00 | 0.08 | 0.00 | 68 | 1015.7 |
| 20260503215524 | 6 | 350 | 9.7 | 17.7 | 0.00 | 0.08 | 0.00 | 67 | 1015.7 |
| 20260503214545 | 6 | 348 | 11.3 | 17.7 | 0.00 | 0.08 | 0.00 | 68 | 1015.7 |
| 20260503213524 | 6 | 350 | 11.3 | 17.7 | 0.00 | 0.08 | 0.00 | 68 | 1015.6 |
| 20260503212525 | 6 | 344 | 11.3 | 14.5 | 0.00 | 0.08 | 0.00 | 68 | 1015.6 |
| 20260503211525 | 6 | 345 | 11.3 | 17.7 | 0.00 | 0.08 | 0.00 | 68 | 1015.6 |
| 20260503210544 | 6 | 341 | 11.3 | 14.5 | 0.00 | 0.08 | 0.00 | 68 | 1015.6 |
| 20260503205524 | 6 | 347 | 9.7 | 14.5 | 0.00 | 0.08 | 0.08 | 68 | 1015.6 |
| 20260503204525 | 6 | 339 | 11.3 | 14.5 | 0.00 | 0.08 | 0.08 | 68 | 1015.8 |
| 20260503203536 | 6 | 341 | 11.3 | 17.7 | 0.00 | 0.08 | 0.08 | 69 | 1015.9 |
| 20260503202524 | 6 | 342 | 11.3 | 17.7 | 0.00 | 0.08 | 0.08 | 69 | 1016.0 |
| 20260503201524 | 6 | 346 | 9.7 | 14.5 | 0.00 | 0.08 | 0.08 | 70 | 1016.1 |
| 20260503200545 | 6 | 336 | 11.3 | 17.7 | 0.00 | 0.08 | 0.08 | 70 | 1016.2 |
| 20260503195524 | 6 | 339 | 11.3 | 14.5 | 0.00 | 0.08 | 0.08 | 70 | 1016.3 |
| 20260503194545 | 6 | 347 | 9.7 | 14.5 | 0.00 | 0.08 | 0.08 | 70 | 1016.4 |
| 20260503193524 | 6 | 342 | 9.7 | 17.7 | 0.00 | 0.08 | 0.08 | 72 | 1016.5 |
| 20260503192525 | 6 | 334 | 9.7 | 14.5 | 0.00 | 0.08 | 0.08 | 72 | 1016.5 |
| 20260503191524 | 6 | 333 | 9.7 | 14.5 | 0.00 | 0.08 | 0.08 | 73 | 1016.6 |
| 20260503190524 | 6 | 329 | 8.0 | 14.5 | 0.00 | 0.08 | 0.08 | 73 | 1016.8 |
| 20260503185525 | 6 | 345 | 8.0 | 14.5 | 0.00 | 0.08 | 0.08 | 72 | 1017.0 |
| 20260503184525 | 6 | 338 | 8.0 | 11.3 | 0.00 | 0.08 | 0.08 | 72 | 1017.1 |
| 20260503183524 | 6 | 335 | 8.0 | 11.3 | 0.00 | 0.08 | 0.08 | 72 | 1017.3 |
| 20260503182524 | 6 | 339 | 8.0 | 11.3 | 0.00 | 0.08 | 0.08 | 72 | 1017.2 |
| 20260503181524 | 6 | 339 | 8.0 | 11.3 | 0.00 | 0.08 | 0.08 | 71 | 1017.3 |
| 20260503180524 | 6 | 337 | 6.4 | 11.3 | 0.00 | 0.08 | 0.08 | 72 | 1017.4 |
| 20260503175524 | 6 | 353 | 8.0 | 11.3 | 0.00 | 0.08 | 0.08 | 72 | 1017.4 |
| 20260503174524 | 6 | 344 | 6.4 | 6.4 | 0.00 | 0.08 | 0.08 | 73 | 1017.4 |
| 20260503173524 | 7 | 3 | 4.8 | 6.4 | 0.00 | 0.08 | 0.08 | 72 | 1017.4 |
| 20260503172524 | 7 | 23 | 6.4 | 11.3 | 0.00 | 0.08 | 0.08 | 71 | 1017.3 |
| 20260503171625 | 7 | 22 | 8.0 | 11.3 | 0.00 | 0.08 | 0.08 | 68 | 1017.4 |
| 20260503170536 | 8 | 23 | 6.4 | 6.4 | 0.00 | 0.08 | 0.08 | 67 | 1017.4 |
| 20260503150524 | 11 | 35 | 19.3 | 27.4 | 0.00 | 0.08 | 0.08 | 52 | 1017.6 |
| 20260503130524 | 12 | 60 | 20.9 | 32.2 | 0.00 | 0.08 | 0.08 | 48 | 1018.2 |
| 20260503110524 | 11 | 52 | 24.1 | 35.4 | 0.00 | 0.08 | 0.08 | 60 | 1019.2 |
| 20260503081525 | 10 | 47 | 20.9 | 32.2 | 0.00 | 0.08 | 0.08 | 70 | 1019.7 |
| 20260503080525 | 11 | 37 | 20.9 | 40.2 | 0.00 | 0.08 | 0.08 | 69 | 1019.7 |
| 20260503072544 | 10 | 46 | 22.5 | 32.2 | 0.00 | 0.08 | 0.08 | 71 | 1019.6 |
| 20260503071525 | 9 | 28 | 17.7 | 27.4 | 0.00 | 0.08 | 0.08 | 78 | 1019.5 |
| 20260503070525 | 9 | 41 | 17.7 | 27.4 | 0.00 | 0.08 | 0.08 | 79 | 1019.4 |
| 20260503054525 | 8 | 21 | 22.5 | 32.2 | 0.00 | 0.08 | 0.08 | 87 | 1018.9 |
| 20260503053524 | 7 | 15 | 20.9 | 27.4 | 0.00 | 0.08 | 0.08 | 88 | 1018.8 |
| 20260503052525 | 6 | 15 | 19.3 | 32.2 | 0.00 | 0.08 | 0.08 | 89 | 1018.7 |